2022-095A (53367 NORAD) Tracking and Keplerian Element Data

This shows tracking and keplerian element data for the satellite.

Feedback or suggestion? Click here.




ElementValue
Catalog53367
Name2022-095A
Epoch Orbit1586
Epoch Day325.2194253
Epoch Year2022
RAAN38.0537
Inclination97.4001
Eccentricity0.0076304
Argument of Perigee71.273
Mean Anonmoly12.9776
Mean Motion15.26701699
Decay Rate0.00010335
L11 53367U 22095A 22325.21942530 .00010335 00000+0 36392-3 0 9999
L22 53367 97.4001 38.0537 0076304 71.2730 12.9776 15.26701699 15861



Live tracking and technical data element details for 2022-095A (NORAD 53367). 2022-095A can be tracked NOW for your location showing map with azimuth and elevation plus other details from your city location.







IsCatalogInMostPopularTable: catalog: 53367, numindb: 6
Update: records affected: 1



GetName: 53367 2022-095A

Hit Count: updated at: Thu, 08 Dec 2022 19:09:06 GMT